Location: Clanezzo
(45.7500°N, 9.6000°E)
Time: 06:10:33
(UTC+00:00)

Envisat - Pass Details

Date: 19 January 2022
Orbit: 764 x 765 km, 98.2° (Epoch: 22 May)

Event Time Altitude Azimuth Distance (km) Brightness Sun altitude
Rises 03:37:48 0° 21° (NNE) 3,240 6.5 -34.2°
Reaches altitude 10° 03:40:19 10° 30° (NNE) 2,309 5.8 -33.8°
Maximum altitude 03:44:58 36° 96° (E) 1,209 4.4 -33.0°
Drops below altitude 10° 03:49:36 10° 163° (SSE) 2,294 5.6 -32.2°
Sets 03:52:04 0° 171° (S) 3,216 6.3 -31.7°
